Location: Anne Acres
(38.7004°N, 75.0827°W)
Time: 20:15:51
(UTC+00:00)

Explorer 11/Cluster Stage 4 - Pass Details

Date: 12 November 2024
Orbit: 464 x 1202 km, 28.8° (Epoch: 03 December)

Event Time Altitude Azimuth Distance (km) Brightness Sun altitude
Exits shadow 10:05:14 11° 210° (SSW) 1,820 8.2 -18.6°
Maximum altitude 10:07:44 17° 173° (S) 1,412 8.1 -18.1°
Drops below altitude 10° 10:10:17 10° 132° (SE) 1,708 9.2 -17.6°
Sets 10:12:58 0° 110° (ESE) 2,526 10.8 -17.1°
